User: anonymous   Login
Location: Caltech
(34.1382°N, 118.1253°W)
Time: 19:37:30
(UTC-07:00)
Language:

CZ-2C R/B - Orbit

View from above orbital plane
View from above orbital plane
View from above satellite
View from above satellite

Ground track
Ground track

The orbit data is extracted from the following two-line orbital elements,

1 36089U 09061B   14304.11155715  .00000374  00000-0  10493-3 0  4719
2 36089 098.0934 331.6834 0083860 120.9689 305.2109 14.49256284262622
Epoch (UTC): 31 October 2014 02:40:38
Eccentricity: 0.0083860
inclination: 98.0934°
perigee height: 668 km
apogee height: 787 km
right ascension of ascending node: 331.6834°
argument of perigee: 120.9689°
revolutions per day: 14.49256284
mean anomaly at epoch: 305.2109°
orbit number at epoch: 26262

The dashed part of the orbit path shows where the satellite is in the earth's shadow,  

DLR